Back to catalog

SL-16 DEB

AliveLEO
NORAD 28356·DEBRIS·🇷🇺 Russia

Launched Jun 10, 2004 from Baikonur Cosmodrome

Loading…

Next Passes (next 24 hours)

TLE

FreshSource: Space-Track

Epoch: Sep 14, 2026, 10:02 UTC

1 28356U 04021E   26257.41850856 -.00000026  00000-0  14200-4 0  9990
2 28356  71.0623  46.4086 0217506  81.1305 311.1424 13.69414495111872

Track SL-16 DEB in real time with AllMySat

Download on the App Store